GFSFLT2_700_spd_051.txt.gz
Wind_Speed
52 53 55 50 50 48 44 48 47 46 47 48 48 51 51 51 52 53 55 54 57 57 57 59 60 60 60
48 50 49 46 44 45 43 44 43 44 46 46 49 52 52 52 54 54 55 57 59 60 60 61 61 59 57
48 43 43 41 39 39 39 41 44 45 46 47 49 49 50 52 54 56 56 56 55 54 51 48 46 45 43
45 39 37 37 38 40 41 43 44 42 44 46 47 49 50 51 50 47 43 41 40 40 40 41 41 40 40
36 36 37 39 41 42 41 42 42 42 45 45 46 45 39 33 31 32 35 37 40 41 42 41 40 40 40
37 38 42 42 44 42 42 43 42 41 44 32 31 25 26 28 30 32 34 36 38 39 39 39 38 38 38
39 40 41 42 42 41 41 40 31 24 23 17 24 24 25 24 26 29 33 36 37 38 37 37 36 36 37
41 41 42 42 41 36 28 19 14 17 24 21 22 23 24 21 24 27 31 34 36 37 37 37 36 35 35
43 41 37 31 22 13 12 12 13 16 22 23 22 26 22 19 21 24 27 30 33 36 37 39 39 38 38
29 22 16 11 10 10 12 14 16 15 23 21 22 29 30 18 20 22 25 27 31 32 33 36 37 39 39
13 10 9 9 11 13 15 15 17 19 25 31 25 28 32 34 24 24 26 26 29 29 31 33 34 36 37
11 10 11 13 15 17 18 19 19 22 26 32 34 34 35 35 35 30 28 28 29 28 30 30 31 32 34
12 13 15 17 19 20 21 23 22 24 27 31 35 36 36 36 39 34 36 30 29 30 31 31 29 28 28
14 15 17 19 21 22 23 25 24 23 26 30 34 36 36 35 39 39 37 38 33 30 33 33 32 29 27
16 17 19 20 21 24 25 26 26 24 23 27 31 35 37 37 38 39 38 35 34 33 33 32 30 27 26
18 19 21 22 23 24 26 26 26 25 25 27 30 34 36 34 37 39 36 35 32 31 31 32 29 26 25
20 22 23 24 25 25 25 26 26 27 28 30 33 37 41 41 36 38 37 35 33 31 31 32 32 25 25

GFSFLT2_700_spd_054.txt.gz
Wind_Speed
43 40 43 45 41 41 42 43 44 44 45 43 43 44 44 43 44 44 46 48 48 49 50 50 51 52 53
35 37 41 41 41 43 42 42 42 39 38 37 40 41 43 43 46 46 46 47 49 50 52 54 54 53 52
41 44 47 45 41 42 38 37 39 36 36 38 39 42 42 43 44 46 48 49 50 50 48 45 42 40 38
46 46 48 40 39 37 35 36 35 37 40 39 40 41 43 44 45 45 44 41 38 35 34 35 36 36 36
41 37 36 37 35 35 36 37 37 38 42 39 42 43 41 38 32 29 29 32 34 35 36 36 36 35 35
34 35 37 39 39 38 39 38 37 40 43 37 41 28 21 21 24 27 29 32 34 35 36 35 33 33 31
34 38 38 39 40 39 40 39 38 35 30 14 18 15 19 21 24 26 29 32 34 34 34 33 33 31 30
37 39 41 41 41 38 34 27 19 16 15 9 18 15 15 16 20 23 28 32 35 37 36 35 35 34 33
41 40 37 32 27 20 13 9 11 14 19 14 16 16 14 13 17 22 26 31 34 35 35 35 36 36 36
29 23 19 14 11 10 11 12 12 13 21 19 19 25 22 11 15 19 22 26 29 31 32 34 35 37 36
14 11 10 10 10 11 13 14 15 16 24 26 21 24 27 28 15 18 22 24 27 28 30 32 33 35 36
11 11 11 11 13 15 16 18 19 19 23 29 28 28 28 28 28 22 23 26 28 29 30 29 30 31 32
11 12 14 15 16 18 20 21 21 21 23 27 29 29 31 31 34 28 32 27 29 31 31 30 28 28 27
13 14 15 17 18 20 21 23 23 22 24 25 28 30 31 31 33 32 32 35 32 32 34 30 28 27 27
14 16 17 18 20 22 23 25 26 25 23 24 27 29 31 34 34 34 34 33 35 35 32 30 28 26 26
16 17 18 19 20 22 24 26 27 25 25 26 27 31 34 31 34 35 34 35 35 36 36 35 31 28 26
18 19 20 21 22 23 25 27 26 27 27 28 30 34 39 39 33 32 37 35 36 38 37 35 35 29 28

GFSFLT2_700_spd_057.txt.gz
Wind_Speed
44 37 36 36 31 23 32 33 33 36 38 38 38 40 41 42 43 41 42 43 41 41 42 43 42 44 43
30 25 24 28 31 33 34 34 33 36 35 35 33 34 33 34 37 39 40 41 41 42 43 44 46 46 47
29 25 30 32 32 30 31 30 30 30 33 32 33 34 34 36 38 40 40 42 43 45 46 45 44 43 41
32 31 33 32 34 31 30 29 29 30 32 33 35 35 36 38 40 41 42 42 42 41 37 34 32 32 32
30 33 35 34 33 32 31 30 31 34 34 36 36 37 38 40 39 38 34 29 27 28 29 30 30 30 30
29 30 31 30 31 33 34 33 34 39 38 35 40 35 33 24 20 20 22 25 27 29 30 30 29 29 29
28 30 32 34 36 37 38 38 38 37 33 26 24 15 13 15 17 19 21 24 27 29 29 29 29 29 29
33 35 35 35 34 31 28 24 21 16 8 9 12 11 11 14 16 19 23 25 28 29 30 30 30 30 30
33 33 31 27 23 19 14 10 10 12 13 10 14 12 12 15 17 20 24 27 29 30 30 31 31 32 32
23 20 17 14 12 12 10 10 11 14 20 17 17 19 16 15 18 22 25 28 28 29 30 31 32 34 34
15 13 12 12 12 12 12 14 15 16 22 22 20 24 26 22 16 21 23 25 27 28 31 32 33 34 34
13 12 12 12 13 14 16 17 18 19 23 26 24 26 27 26 21 16 18 22 24 27 29 31 31 32 32
13 13 13 14 15 16 18 19 19 21 23 26 27 27 27 26 25 19 23 20 24 28 28 29 30 30 28
15 15 15 16 18 19 19 21 20 21 23 26 28 28 27 28 29 25 27 30 27 29 30 30 29 29 28
17 17 18 19 20 21 22 22 22 21 22 25 27 28 28 30 31 30 31 30 32 32 32 32 29 26 26
19 20 20 22 22 22 24 24 23 24 24 25 27 29 31 31 33 34 32 33 32 33 33 35 31 28 29
21 22 23 23 23 23 24 25 25 26 25 26 28 32 34 34 30 33 33 34 35 34 33 34 35 33 34

GFSFLT2_700_spd_063.txt.gz
Wind_Speed
32 30 25 22 19 19 16 10 14 16 14 20 24 27 31 33 31 35 36 35 35 36 38 40 40 40 39
27 25 24 25 20 24 16 13 15 18 21 23 26 27 29 32 35 34 33 35 35 37 38 38 38 39 38
31 29 23 26 24 21 25 20 19 22 28 28 27 30 33 33 32 32 33 33 34 37 38 39 40 40 40
23 20 20 24 25 24 26 26 27 29 29 30 30 32 32 33 34 35 36 38 40 41 42 41 41 41 41
24 27 25 25 27 25 24 24 25 27 29 31 33 34 35 36 36 37 39 40 42 42 42 41 39 35 32
23 25 26 28 28 28 29 29 31 32 34 35 36 36 38 37 37 37 36 36 34 30 26 23 23 24 23
28 29 30 30 31 31 31 31 31 32 31 28 32 27 26 24 21 18 17 18 18 19 20 20 21 21 21
29 30 30 30 30 28 28 26 23 22 18 18 18 17 16 15 15 16 17 18 20 21 22 22 23 23 23
31 31 30 29 27 26 23 20 19 18 16 15 14 15 15 15 16 17 19 22 23 25 26 26 27 27 26
31 31 29 27 24 22 22 20 20 18 16 16 17 18 18 17 18 20 23 26 28 29 30 30 30 30 28
30 28 26 24 23 22 22 21 20 21 21 20 19 21 22 21 22 24 26 29 31 32 32 31 31 32 29
26 25 24 23 24 24 23 22 21 22 24 25 24 25 27 24 23 23 28 30 32 32 33 33 33 33 33
26 25 25 25 25 25 25 24 24 25 25 27 28 29 29 27 25 23 28 28 31 32 34 34 33 34 33
25 25 25 26 26 27 27 27 25 27 29 29 30 31 32 31 30 23 26 29 27 31 35 36 35 35 34
25 26 26 26 27 29 29 29 28 28 28 32 33 33 34 34 33 29 28 28 29 30 34 37 35 34 34
25 26 27 28 29 29 31 31 30 30 30 31 33 35 36 34 35 34 31 30 30 32 33 37 35 31 35
27 28 29 29 30 29 31 33 32 32 31 31 32 36 38 38 33 33 33 31 34 33 34 36 38 31 34

GFSFLT2_700_spd_066.txt.gz
Wind_Speed
24 25 26 26 25 22 25 22 26 10 11 12 15 20 22 24 28 29 28 28 29 31 32 32 32 34 34
25 27 28 28 23 22 21 20 16 19 14 15 18 18 20 26 27 27 28 30 31 34 32 32 33 34 33
24 24 21 19 19 21 21 24 18 19 21 22 22 23 25 25 27 30 30 32 32 33 33 33 33 34 34
18 19 20 19 18 18 18 20 21 19 21 21 25 27 27 29 29 30 32 33 35 35 35 36 36 36 36
19 22 23 24 24 23 23 23 24 25 25 26 27 28 31 32 33 35 36 36 38 39 39 39 38 38 38
23 25 25 26 27 27 27 28 29 28 28 30 30 31 32 33 33 34 35 36 36 35 33 31 27 24 22
26 27 28 28 27 28 28 28 28 28 27 27 30 30 29 29 28 28 28 27 23 20 18 17 18 18 19
28 28 28 28 29 28 27 25 23 23 21 20 25 24 24 24 23 22 21 19 19 19 20 20 20 21 21
28 29 29 28 27 27 25 22 21 20 20 19 20 20 20 21 21 21 21 22 23 23 24 24 24 24 23
29 29 29 27 25 23 22 22 22 21 20 20 21 21 21 21 21 21 23 25 26 28 28 28 27 26 25
29 29 27 26 25 24 23 23 24 24 24 22 21 23 24 22 22 23 25 27 29 30 31 30 29 29 27
28 28 26 25 25 25 25 25 24 25 27 27 25 25 26 25 24 24 28 30 32 31 33 33 31 30 29
27 26 25 25 25 25 25 25 25 27 27 28 29 28 28 28 28 24 27 28 32 33 35 36 35 33 31
27 27 26 25 25 26 25 26 25 27 29 29 30 30 30 30 30 26 26 30 28 30 33 34 35 34 34
28 27 26 26 27 27 27 27 26 26 26 32 34 33 32 32 31 30 28 27 29 31 33 33 33 33 34
28 27 28 28 28 28 29 29 28 27 27 29 33 36 36 32 33 33 31 31 29 32 34 35 34 30 33
28 29 29 28 28 27 29 29 28 28 26 29 31 35 37 35 30 32 33 32 33 33 34 35 36 31 33

GFSFLT2_700_spd_069.txt.gz
Wind_Speed
19 17 18 20 21 20 20 19 19 22 14 16 13 15 27 29 32 32 29 27 24 24 23 24 25 26 28
19 18 18 18 19 19 18 17 16 18 21 20 14 13 15 16 17 20 21 25 26 24 25 26 28 29 30
15 15 16 15 16 18 17 16 16 16 17 18 19 18 20 22 24 26 31 32 34 34 29 29 29 30 31
16 16 18 19 19 20 20 19 20 20 20 20 20 21 21 22 24 26 27 27 27 28 30 31 31 32 33
18 19 20 21 22 22 23 23 23 23 23 23 24 25 25 26 27 29 30 31 32 33 34 35 34 35 34
21 22 23 23 24 24 24 25 26 25 25 26 26 27 27 27 28 29 31 32 33 33 34 34 33 33 32
22 23 23 24 24 25 25 26 26 25 24 24 23 24 25 24 25 25 25 26 26 26 25 24 22 21 20
22 23 24 24 25 26 26 25 25 23 20 19 22 23 23 24 25 25 24 23 22 20 19 19 19 19 20
23 24 24 25 25 26 24 23 22 21 20 19 20 22 22 22 23 23 25 25 24 23 23 23 24 23 22
23 23 24 25 25 25 24 23 22 23 22 20 20 21 22 22 23 24 26 27 27 27 28 28 28 28 26
23 23 24 25 25 25 24 23 23 23 22 21 20 22 23 23 23 26 27 29 29 30 31 33 33 32 30
23 24 25 25 25 25 24 23 23 24 25 24 22 23 24 24 22 25 28 29 31 31 34 35 35 34 33
25 26 26 27 26 25 25 25 25 27 27 27 27 26 25 25 23 23 26 27 31 32 35 36 35 35 33
26 26 27 26 26 27 27 27 26 28 30 30 30 28 26 26 26 22 27 27 27 31 35 34 35 36 35
27 27 27 26 27 27 28 28 27 26 28 33 35 31 28 27 26 26 26 26 29 29 33 33 32 32 34
26 25 25 26 26 27 28 28 26 26 25 29 32 34 33 28 29 26 25 27 30 30 31 33 31 30 33
25 25 26 26 26 27 28 28 27 26 26 27 29 32 32 30 25 28 25 27 30 29 31 32 31 29 31